エンケ彗星

2P/Encke (2020)

English version
Home page
Updated on September 18, 2021

---------------------------------------------------------------------

・ プロフィール

・ 写真集

・ 軌道要素

Epoch 2020 July 10.0 TT = JDT 2459040.5
T 2020 June 25.84012 TT                                 Rudenko
q   0.3367190            (2000.0)            P               Q
n   0.29893613     Peri.  186.56153     -0.94513318     -0.31471869
a   2.2152213      Node   334.55249     +0.30823241     -0.77022696
e   0.8479976      Incl.   11.76469     +0.10824075     -0.55470945
P   3.30
From 5517 observations 1901 Aug. 31-2020 Sept. 12, mean residual 0".8.
     Nongravitational parameters A1 = +0.02, A2 = -0.0006.

・ 星図

・ 光度変化

        H = 14.2  G = 0.15                [   ,-97]  (              〜2020年 3月20日)
        m1 =  9.8 + 5 logΔ + 25   log r  [-97,-45]  (2020年 3月20日〜2020年 5月11日)
        m1 = 10.3 + 5 logΔ +  7.0 log r  [-45, 20]  (2020年 5月11日〜2020年 7月15日)
        m1 = 12.3 + 5 logΔ + 15.7 log r  [ 20,115]  (2020年 7月15日〜2020年10月18日)
        H = 14.2  G = 0.15                [115,   ]  (2020年10月18日〜              )

---------------------------------------------------------------------

軌道要素はM.P.E.C. 2021-F20に掲載されたものです。
星図はステラナビゲータ Ver.10 (アストロアーツ) で作成したものです。
光度グラフはComet for Windowsで作成したものです。

---------------------------------------------------------------------

Copyright(C) Seiichi Yoshida (comet@aerith.net). All rights reserved.